Pottstown, PA

12:36 PM EDT on October 20, 2017 (GMT -0400)
Pottstown Limerick

Weather History for KPTW - February, 2013

Change the Weather History Date:

Monday, February 18, 2013

  Actual Average (KRDG) Record (KRDG)
Temperature  
Mean Temperature 27 °F -  
Max Temperature 35 °F 40 °F 71 °F (2011)
Min Temperature 19 °F 24 °F -8 °F (1979)
Degree Days  
Heating Degree Days 38    
Moisture  
Dew Point 8 °F    
Average Humidity 46    
Maximum Humidity 57    
Minimum Humidity 34    
Precipitation  
Precipitation 0.00 in - - ()
Sea Level Pressure  
Sea Level Pressure 30.24 in    
Wind  
Wind Speed 9 mph (West)    
Max Wind Speed 18 mph    
Max Gust Speed 25 mph    
Visibility 10 miles    
Events      
Averages and records for this station are not official NWS values.
T = Trace of Precipitation, MM = Missing Value Source: NWS Daily Summary

Daily Weather History Graph

Daily Weather History Graph

Search for Another Location

Airport or City:

Trip Planner

Search our weather history database for the weather conditions in past years. The results will help you decide how hot, cold, wet, or windy it might be!

Date:

Astronomy

Feb. 18, 2013 Rise Set
Actual Time 6:51 AM EST 5:41 PM EST
Civil Twilight 6:23 AM EST 6:09 PM EST
Nautical Twilight 5:51 AM EST 6:41 PM EST
Astronomical Twilight 5:20 AM EST 7:12 PM EST
Moon 11:25 AM EST (2/18) 1:29 AM EST (2/18)
Length of Visible Light 11h 45m
Length of Day
10h 50m
First Quarter, 58% of the Moon is Illuminated
Feb 18
First Quarter
Feb 25
Full
Mar 4
Last Quarter
Mar 11
New
Mar 19
First Quarter

Hourly Weather History & Observations

Time (EST) Temp. Windchill Dew Point Humidity Pressure Visibility Wind Dir Wind Speed Gust Speed Precip Events Conditions
12:54 AM 19.9 °F 4.8 °F 3.0 °F 48% 30.12 in 10.0 mi NW 18.4 mph 25.3 mph N/A   Clear
1:54 AM 19.9 °F 9.3 °F 6.1 °F 55% 30.14 in 10.0 mi West 9.2 mph 16.1 mph N/A   Clear
2:54 AM 19.9 °F 11.1 °F 6.1 °F 55% 30.15 in 10.0 mi WNW 6.9 mph 19.6 mph N/A   Clear
4:54 AM 19.0 °F 6.8 °F 6.1 °F 57% 30.20 in 10.0 mi WNW 11.5 mph - N/A   Clear
5:54 AM 19.0 °F 7.5 °F 6.1 °F 57% 30.23 in 10.0 mi WNW 10.4 mph - N/A   Clear
6:54 AM 19.0 °F 7.5 °F 6.1 °F 57% 30.26 in 10.0 mi WNW 10.4 mph 17.3 mph N/A   Clear
7:54 AM 19.9 °F 8.6 °F 6.1 °F 55% 30.29 in 10.0 mi NW 10.4 mph - N/A   Clear
8:54 AM 21.9 °F 12.5 °F 5.0 °F 48% 30.32 in 10.0 mi WNW 8.1 mph 21.9 mph N/A   Clear
9:54 AM 25.0 °F 14.8 °F 7.0 °F 46% 30.31 in 10.0 mi NW 10.4 mph 19.6 mph N/A   Clear
10:54 AM 27.0 °F 18.7 °F 7.0 °F 43% 30.33 in 10.0 mi West 8.1 mph - N/A   Clear
11:54 AM 30.0 °F 22.4 °F 8.1 °F 40% 30.31 in 10.0 mi West 8.1 mph - N/A   Clear
12:54 PM 32.0 °F 25.6 °F 10.0 °F 40% 30.27 in 10.0 mi West 6.9 mph 18.4 mph N/A   Clear
1:54 PM 34.0 °F 26.6 °F 10.9 °F 38% 30.25 in 10.0 mi WNW 9.2 mph - N/A   Clear
2:54 PM 35.1 °F 29.3 °F 9.0 °F 34% 30.24 in 10.0 mi West 6.9 mph - N/A   Clear
3:54 PM 35.1 °F 31.0 °F 9.0 °F 34% 30.24 in 10.0 mi Variable 4.6 mph - N/A   Clear
4:54 PM 35.1 °F 30.1 °F 10.0 °F 35% 30.22 in 10.0 mi SW 5.8 mph - N/A   Clear
5:54 PM 33.1 °F 28.7 °F 9.0 °F 37% 30.24 in 10.0 mi SW 4.6 mph - N/A   Clear
6:54 PM 33.1 °F 30.0 °F 9.0 °F 37% 30.25 in 10.0 mi SSW 3.5 mph - N/A   Clear
7:54 PM 30.0 °F - 10.9 °F 45% 30.23 in 10.0 mi Calm Calm - N/A   Clear
8:54 PM 30.9 °F 27.5 °F 12.0 °F 46% 30.23 in 10.0 mi South 3.5 mph - N/A   Clear
9:54 PM 30.9 °F - 12.9 °F 47% 30.22 in 10.0 mi Calm Calm - N/A   Clear
10:54 PM 30.0 °F - 12.9 °F 49% 30.20 in 10.0 mi Calm Calm - N/A   Clear
11:54 PM 30.0 °F - 12.0 °F 47% 30.19 in 10.0 mi Calm Calm - N/A   Clear